DW0231 Weather Reports


Display with metric or nautical units.
time (UTC)temp
F
wind
direction
speed
MPH
gust
MPH
rain 1hr
in
rain 24hr
in
rain mn
in
humidity
%
barometer
mb
20260903233124 84 217 5.0 0.0 0.00 0.00 0.00 17 1002.1
20260903231613 84 227 7.0 0.0 0.00 0.00 0.00 16 1002.2
20260903230028 84 209 6.0 0.0 0.00 0.00 0.00 16 1002.2
20260903224615 84 212 6.0 0.0 0.00 0.00 0.00 16 1002.6
20260903223103 84 226 5.0 0.0 0.00 0.00 0.00 16 1002.7
20260903221636 85 185 5.0 0.0 0.00 0.00 0.00 17 1002.9
20260903220047 84 184 5.0 0.0 0.00 0.00 0.00 18 1003.3
20260903214516 84 200 5.0 0.0 0.00 0.00 0.00 16 1003.5
20260903213120 83 78 5.0 0.0 0.00 0.00 0.00 16 1003.6
20260903211510 83 174 4.0 0.0 0.00 0.00 0.00 17 1003.9
20260903210117 83 258 5.0 0.0 0.00 0.00 0.00 17 1004.0
20260903204552 82 188 5.0 0.0 0.00 0.00 0.00 16 1004.4
20260903203124 82 195 4.0 0.0 0.00 0.00 0.00 18 1004.8
20260903201605 82 190 5.0 0.0 0.00 0.00 0.00 19 1005.0
20260903200013 81 218 6.0 0.0 0.00 0.00 0.00 19 1005.1
20260903194626 81 222 4.0 0.0 0.00 0.00 0.00 18 1005.0
20260903193012 80 190 5.0 0.0 0.00 0.00 0.00 18 1005.6
20260903191633 79 209 5.0 0.0 0.00 0.00 0.00 20 1005.8
20260903190121 79 195 5.0 0.0 0.00 0.00 0.00 19 1006.0
20260903184515 78 232 5.0 0.0 0.00 0.00 0.00 20 1006.1
20260903183108 78 194 6.0 0.0 0.00 0.00 0.00 20 1006.3
20260903181544 77 236 6.0 0.0 0.00 0.00 0.00 20 1006.6
20260903180127 77 186 6.0 0.0 0.00 0.00 0.00 20 1006.6
20260903174622 76 202 5.0 0.0 0.00 0.00 0.00 20 1007.0
20260903173112 76 196 4.0 0.0 0.00 0.00 0.00 20 1007.0
20260903171530 75 230 6.0 0.0 0.00 0.00 0.00 20 1007.0
20260903170029 75 195 6.0 0.0 0.00 0.00 0.00 21 1006.9
20260903164508 74 214 6.0 0.0 0.00 0.00 0.00 20 1006.9
20260903163107 74 209 5.0 0.0 0.00 0.00 0.00 20 1006.9
20260903161625 73 192 5.0 0.0 0.00 0.00 0.00 21 1006.7
20260903160007 69 217 2.0 0.0 0.00 0.00 0.00 26 1006.7
20260903154616 67 202 2.0 0.0 0.00 0.00 0.00 36 1006.7
20260903153001 64 215 0.0 0.0 0.00 0.00 0.00 38 1006.9
20260903151617 61 214 0.0 0.0 0.00 0.00 0.00 41 1007.2
20260903150037 58 215 0.0 0.0 0.00 0.00 0.00 50 1007.0
20260903144507 55 215 0.0 0.0 0.00 0.00 0.00 52 1006.9
20260903143135 54 214 0.0 0.0 0.00 0.00 0.00 54 1006.9
20260903141621 53 215 0.0 0.0 0.00 0.00 0.00 56 1006.8
20260903140042 53 214 0.0 0.0 0.00 0.00 0.00 55 1006.8
20260903134629 53 215 0.0 0.0 0.00 0.00 0.00 52 1006.6
20260903133043 54 215 0.0 0.0 0.00 0.00 0.00 51 1006.4
20260903131624 55 215 0.0 0.0 0.00 0.00 0.00 47 1006.2
20260903130130 55 215 0.0 0.0 0.00 0.00 0.00 48 1005.9
20260903124507 55 214 0.0 0.0 0.00 0.00 0.00 49 1005.7
20260903123111 55 215 0.0 0.0 0.00 0.00 0.00 48 1005.7
20260903121549 55 215 0.0 0.0 0.00 0.00 0.00 48 1005.6
20260903120010 55 214 0.0 0.0 0.00 0.00 0.00 47 1005.5
20260903114609 55 214 0.0 0.0 0.00 0.00 0.00 47 1005.4
20260903113035 56 214 0.0 0.0 0.00 0.00 0.00 48 1005.4
20260903111632 56 215 0.0 0.0 0.00 0.00 0.00 45 1005.2
20260903110051 57 215 0.0 0.0 0.00 0.00 0.00 46 1005.2
20260903104507 57 215 0.0 0.0 0.00 0.00 0.00 45 1005.1
20260903103118 57 215 0.0 0.0 0.00 0.00 0.00 46 1005.0
20260903101602 57 215 0.0 0.0 0.00 0.00 0.00 46 1004.7
20260903100010 57 215 0.0 0.0 0.00 0.00 0.00 48 1004.6
20260903094627 58 215 0.0 0.0 0.00 0.00 0.00 50 1004.5
20260903093041 58 214 0.0 0.0 0.00 0.00 0.00 50 1004.5
20260903091525 59 215 0.0 0.0 0.00 0.00 0.00 50 1004.4
20260903090020 59 214 0.0 0.0 0.00 0.00 0.00 49 1004.5
20260903084625 60 215 0.0 0.0 0.00 0.00 0.00 47 1004.4
20260903083116 61 215 0.0 0.0 0.00 0.00 0.00 44 1004.5
20260903081600 61 215 0.0 0.0 0.00 0.00 0.00 43 1004.5
20260903080001 62 215 0.0 0.0 0.00 0.00 0.00 42 1004.4
20260903074614 63 215 0.0 0.0 0.00 0.00 0.00 43 1004.4
20260903073137 64 215 0.0 0.0 0.00 0.00 0.00 39 1003.9
20260903071617 64 215 0.0 0.0 0.00 0.00 0.00 38 1003.6
20260903070011 64 214 0.0 0.0 0.00 0.00 0.00 35 1003.6
20260903064624 64 215 0.0 0.0 0.00 0.00 0.00 35 1003.5
20260903063007 65 214 0.0 0.0 0.00 0.00 0.00 36 1003.3
20260903061621 65 215 0.0 0.0 0.00 0.00 0.00 35 1003.0
20260903060041 65 215 0.0 0.0 0.00 0.00 0.00 38 1002.9
20260903054503 65 215 0.0 0.0 0.00 0.00 0.00 36 1003.0
20260903053117 66 215 0.0 0.0 0.00 0.00 0.00 37 1002.8
20260903051543 66 215 0.0 0.0 0.00 0.00 0.00 35 1002.8
20260903050001 66 214 0.0 0.0 0.00 0.00 0.00 34 1003.0
20260903044628 67 215 0.0 0.0 0.00 0.00 0.00 34 1003.0
20260903043102 67 215 0.0 0.0 0.00 0.00 0.00 34 1002.9
20260903041518 67 215 0.0 0.0 0.00 0.00 0.00 35 1002.6
20260903040133 68 215 0.0 0.0 0.00 0.00 0.00 33 1002.3
20260903034620 69 215 0.0 0.0 0.00 0.00 0.00 33 1002.3
20260903033050 70 215 0.0 0.0 0.00 0.00 0.00 31 1002.4
20260903031506 71 215 0.0 0.0 0.00 0.00 0.00 29 1002.2
20260903030057 73 215 0.0 0.0 0.00 0.00 0.00 26 1002.0
20260903024516 75 215 0.0 0.0 0.00 0.00 0.00 24 1001.6
20260903023004 76 214 1.0 0.0 0.00 0.00 0.00 21 1001.4
20260903021625 77 199 2.0 0.0 0.00 0.00 0.00 19 1001.3
20260903020002 77 198 2.0 0.0 0.00 0.00 0.00 19 1001.5
20260903014600 78 190 3.0 0.0 0.00 0.00 0.00 19 1001.6
20260903013125 79 204 3.0 0.0 0.00 0.00 0.00 18 1001.8
20260903011524 79 193 4.0 0.0 0.00 0.00 0.00 18 1001.7
20260903010122 80 207 4.0 0.0 0.00 0.00 0.00 18 1001.9
20260903004608 79 192 5.0 0.0 0.00 0.00 0.00 17 1002.0
20260903003015 79 189 5.0 0.0 0.00 0.00 0.00 19 1002.0
20260903001629 80 200 4.0 0.0 0.00 0.00 0.00 20 1002.2
20260903000057 80 186 4.0 0.0 0.00 0.00 0.00 20 1002.1
20260902234502 80 200 6.0 0.0 0.00 0.00 0.00 19 1002.2